sat.trackr.live / text

‹ back to catalog

STARLINK-31070

NORAD 58639 · 2023-203X

PAYLOAD ACTIVE UNKNOWN

§ Identity

Operator
Country
US
Launch date
2023-12-23
Launch site
AFETR
Launch vehicle
Mass (kg)
RCS (m²)

Purposes: comms

External: N2YO · Heavens-Above · Gunter

§ Orbital elements

Epoch: 2026-05-24T23:22:28.905024Z

Period
94.27 min
Inclination
43.0038°
Eccentricity
0.0001195
Mean motion
15.27575172 rev/d
Perigee alt
482.2 km
Apogee alt
483.9 km
Semi-major
6,861.2 km
B*
-2.0517e-6
RAAN
356.6617°
Arg perigee
259.5003°
Mean anomaly
100.5714°
Rev number
13,522

§ Raw data

STARLINK-310701 58639U 23203X   26144.97394566 -.00000319  00000+0 -20517-5 0  99912 58639  43.0038 356.6617 0001195 259.5003 100.5714 15.27575172135228

JSON: /api/v1/satellites/58639 · /tle

For live sub-satellite position, see the globe view (requires WebGL).

§ Visibility from observer

Set your observer location to see the next 7 days of passes ≥ 10°. The values pass through the URL so the page stays shareable.

No JS? Fill the form by hand. The geolocation button needs JavaScript.